Location: Laterina
(43.5167°N, 11.7167°E)
Time: 14:10:48
(UTC+00:00)

Cosmos 2026 Rocket - Pass Details

Date: 20 January 2021
Orbit: 940 x 1000 km, 82.9° (Epoch: 28 February)

Event Time Altitude Azimuth Distance (km) Brightness Sun altitude
Rises 17:45:53 0° 165° (SSE) 3,596 6.9 -17.4°
Reaches altitude 10° 17:48:28 10° 159° (SSE) 2,661 6.2 -17.9°
Maximum altitude 17:54:09 43° 89° (E) 1,309 4.2 -18.9°
Drops below altitude 10° 17:59:56 10° 20° (NNE) 2,712 6.0 -19.9°
Sets 18:02:34 0° 14° (NNE) 3,672 6.8 -20.4°
